Location: Zagreb
(45.8000°N, 16.0000°E)
Time: 07:28:21
(UTC+02:00)

Courier 1B Rocket - Pass Details

Date: 12 August 2022
Orbit: 920 x 1202 km, 28.2° (Epoch: 25 September)

Event Time Altitude Azimuth Distance (km) Brightness Sun altitude
Rises 17:24:23 0° 222° (SW) 3,543 8.6 27.4°
Reaches altitude 10° 17:28:26 10° 197° (SSW) 2,618 7.6 26.7°
Maximum altitude 17:31:20 13° 169° (S) 2,394 7.1 26.2°
Drops below altitude 10° 17:34:15 10° 141° (SE) 2,668 7.1 25.6°
Sets 17:38:28 0° 116° (ESE) 3,668 7.5 24.9°
